Time,TemperatureF,DewpointF,PressureIn,WindDirection,WindDirectionDegrees,WindSpeedMPH,WindSpeedGustMPH,Humidity,HourlyPrecipIn,Conditions,Clouds,dailyrainin,SoftwareType,DateUTC
2013-11-12 00:00:00,45.3,39.5,30.01,SE,128,0.0,4.0,80,0.00,,---,0.00,VWS V14.01,2013-11-12 08:00:00,
2013-11-12 00:01:00,45.4,39.6,30.01,SE,136,0.0,0.0,80,0.00,,---,0.00,VWS V14.01,2013-11-12 08:01:00,
2013-11-12 00:05:00,45.4,39.3,30.00,SE,136,0.0,0.0,79,0.00,,---,0.00,VWS V14.01,2013-11-12 08:05:00,
2013-11-12 00:06:00,45.4,39.3,30.00,SE,136,0.0,0.0,79,0.00,,---,0.00,VWS V14.01,2013-11-12 08:06:00,
2013-11-12 00:13:00,45.4,39.3,30.00,SSE,153,0.0,0.0,79,0.00,,---,0.00,VWS V14.01,2013-11-12 08:13:00,
2013-11-12 00:15:00,45.4,39.3,30.00,SE,142,0.0,0.0,79,0.00,,---,0.00,VWS V14.01,2013-11-12 08:15:00,
2013-11-12 00:18:00,45.3,39.2,30.00,SE,142,0.0,0.0,79,0.00,,---,0.00,VWS V14.01,2013-11-12 08:18:00,
2013-11-12 00:20:00,45.4,39.3,30.00,East,96,0.0,6.0,79,0.00,,---,0.00,VWS V14.01,2013-11-12 08:20:00,
2013-11-12 00:23:00,45.4,39.3,30.00,SE,135,0.0,4.0,79,0.00,,---,0.00,VWS V14.01,2013-11-12 08:23:00,
2013-11-12 00:25:00,45.4,39.3,30.00,ESE,117,1.0,6.0,79,0.00,,---,0.00,VWS V14.01,2013-11-12 08:25:00,
2013-11-12 00:28:00,45.4,39.3,30.00,SSE,168,0.0,1.0,79,0.00,,---,0.00,VWS V14.01,2013-11-12 08:28:00,
2013-11-12 00:30:00,45.5,39.4,30.00,South,179,0.0,1.0,79,0.00,,---,0.00,VWS V14.01,2013-11-12 08:30:00,
2013-11-12 00:33:00,45.6,39.5,30.00,South,179,0.0,0.0,79,0.00,,---,0.00,VWS V14.01,2013-11-12 08:33:00,
2013-11-12 00:35:00,45.6,39.2,30.01,SSE,160,1.0,2.0,78,0.00,,---,0.00,VWS V14.01,2013-11-12 08:35:00,
2013-11-12 00:38:00,45.7,39.2,30.01,SE,137,1.0,2.0,78,0.00,,---,0.00,VWS V14.01,2013-11-12 08:38:00,
2013-11-12 00:40:00,45.8,39.3,30.00,SSW,195,0.0,3.0,78,0.00,,---,0.00,VWS V14.01,2013-11-12 08:40:00,
2013-11-12 00:43:00,45.9,39.4,30.00,SE,145,0.0,0.0,78,0.00,,---,0.00,VWS V14.01,2013-11-12 08:43:00,
2013-11-12 00:45:00,46.0,39.2,30.00,SSE,157,0.0,4.0,77,0.00,,---,0.00,VWS V14.01,2013-11-12 08:45:00,
2013-11-12 00:48:00,46.0,39.5,30.00,SSE,157,0.0,0.0,78,0.00,,---,0.00,VWS V14.01,2013-11-12 08:48:00,
2013-11-12 00:50:00,46.1,39.6,30.01,SSE,159,0.0,5.0,78,0.00,,---,0.00,VWS V14.01,2013-11-12 08:50:00,
2013-11-12 00:53:00,46.2,39.7,30.00,SE,133,0.0,1.0,78,0.00,,---,0.00,VWS V14.01,2013-11-12 08:53:00,
2013-11-12 00:55:00,46.3,39.8,30.00,SSW,200,0.0,4.0,78,0.00,,---,0.00,VWS V14.01,2013-11-12 08:55:00,
2013-11-12 00:58:00,46.4,40.2,30.00,ENE,74,1.0,1.0,79,0.00,,---,0.00,VWS V14.01,2013-11-12 08:58:00,
2013-11-12 01:00:00,46.5,40.7,30.00,SSE,168,0.0,1.0,80,0.00,,---,0.00,VWS V14.01,2013-11-12 09:00:00,
2013-11-12 01:03:00,46.7,40.9,30.00,SSE,148,0.0,5.0,80,0.00,,---,0.00,VWS V14.01,2013-11-12 09:03:00,
2013-11-12 01:05:00,46.8,41.3,30.00,SSE,163,0.0,5.0,81,0.00,,---,0.00,VWS V14.01,2013-11-12 09:05:00,
2013-11-12 01:08:00,46.9,41.7,30.00,SW,236,0.0,3.0,82,0.00,,---,0.00,VWS V14.01,2013-11-12 09:08:00,
2013-11-12 01:10:00,47.0,42.1,30.00,SSE,149,0.0,3.0,83,0.00,,---,0.00,VWS V14.01,2013-11-12 09:10:00,
2013-11-12 01:13:00,47.1,42.5,30.00,SSE,168,0.0,2.0,84,0.00,,---,0.00,VWS V14.01,2013-11-12 09:13:00,
2013-11-12 01:15:00,47.3,43.0,30.01,South,187,2.0,3.0,85,0.00,,---,0.00,VWS V14.01,2013-11-12 09:15:00,
2013-11-12 01:18:00,47.5,43.5,30.01,SSE,157,3.0,7.0,86,0.00,,---,0.00,VWS V14.01,2013-11-12 09:18:00,
2013-11-12 01:20:00,47.8,44.1,30.01,SSE,165,3.0,10.0,87,0.00,,---,0.00,VWS V14.01,2013-11-12 09:20:00,
2013-11-12 01:23:00,48.0,44.3,30.01,SE,134,2.0,4.0,87,0.00,,---,0.00,VWS V14.01,2013-11-12 09:23:00,
2013-11-12 01:25:00,48.3,44.6,30.00,SE,140,0.0,4.0,87,0.00,,---,0.00,VWS V14.01,2013-11-12 09:25:00,
2013-11-12 01:28:00,48.5,44.8,30.00,SSE,163,0.0,6.0,87,0.00,,---,0.00,VWS V14.01,2013-11-12 09:28:00,
2013-11-12 01:30:00,48.7,45.0,30.00,South,172,0.0,7.0,87,0.00,,---,0.00,VWS V14.01,2013-11-12 09:30:00,
2013-11-12 01:33:00,48.9,44.9,30.01,South,175,0.0,4.0,86,0.00,,---,0.00,VWS V14.01,2013-11-12 09:33:00,
2013-11-12 01:35:00,49.2,44.9,30.01,SSE,163,8.0,10.0,85,0.00,,---,0.00,VWS V14.01,2013-11-12 09:35:00,
2013-11-12 01:38:00,49.6,45.3,30.00,South,180,0.0,10.0,85,0.00,,---,0.00,VWS V14.01,2013-11-12 09:38:00,
2013-11-12 01:40:00,49.9,45.6,30.00,South,182,0.0,10.0,85,0.00,,---,0.00,VWS V14.01,2013-11-12 09:40:00,
2013-11-12 01:43:00,50.2,45.2,30.00,SSE,153,0.0,10.0,83,0.00,,---,0.00,VWS V14.01,2013-11-12 09:43:00,
2013-11-12 01:45:00,50.5,45.8,30.00,SSE,159,0.0,10.0,84,0.00,,---,0.00,VWS V14.01,2013-11-12 09:45:00,
2013-11-12 01:48:00,50.7,45.7,30.00,South,173,0.0,3.0,83,0.00,,---,0.00,VWS V14.01,2013-11-12 09:48:00,
2013-11-12 01:50:00,50.8,45.5,30.00,SSE,150,0.0,6.0,82,0.00,,---,0.00,VWS V14.01,2013-11-12 09:50:00,
2013-11-12 01:53:00,50.9,45.6,30.01,SE,146,0.0,6.0,82,0.00,,---,0.00,VWS V14.01,2013-11-12 09:53:00,
2013-11-12 01:55:00,51.0,45.7,30.01,SSE,165,0.0,6.0,82,0.00,,---,0.00,VWS V14.01,2013-11-12 09:55:00,
2013-11-12 01:58:00,51.1,45.8,30.01,SSE,153,0.0,2.0,82,0.00,,---,0.00,VWS V14.01,2013-11-12 09:58:00,
2013-11-12 02:00:00,51.2,45.6,30.01,ESE,109,0.0,3.0,81,0.00,,---,0.00,VWS V14.01,2013-11-12 10:00:00,
2013-11-12 02:03:00,51.2,45.6,30.01,South,171,0.0,6.0,81,0.00,,---,0.00,VWS V14.01,2013-11-12 10:03:00,
2013-11-12 02:05:00,51.2,45.2,30.01,SE,134,0.0,9.0,80,0.00,,---,0.00,VWS V14.01,2013-11-12 10:05:00,
2013-11-12 02:08:00,51.3,45.7,30.01,SSE,160,4.0,4.0,81,0.00,,---,0.00,VWS V14.01,2013-11-12 10:08:00,
2013-11-12 02:10:00,51.4,45.5,30.01,South,188,0.0,4.0,80,0.00,,---,0.00,VWS V14.01,2013-11-12 10:10:00,
2013-11-12 02:13:00,51.4,45.1,30.01,SSE,163,0.0,7.0,79,0.00,,---,0.00,VWS V14.01,2013-11-12 10:13:00,
2013-11-12 02:15:00,51.6,45.0,30.01,West,278,0.0,7.0,78,0.00,,---,0.00,VWS V14.01,2013-11-12 10:15:00,
2013-11-12 02:18:00,51.7,45.1,30.02,East,92,0.0,1.0,78,0.00,,---,0.00,VWS V14.01,2013-11-12 10:18:00,
2013-11-12 02:20:00,51.8,45.2,30.02,West,265,0.0,3.0,78,0.00,,---,0.00,VWS V14.01,2013-11-12 10:20:00,
2013-11-12 02:22:00,51.9,44.9,30.02,West,265,0.0,0.0,77,0.00,,---,0.00,VWS V14.01,2013-11-12 10:22:00,
2013-11-12 02:25:00,52.0,45.4,30.02,West,263,0.0,0.0,78,0.00,,---,0.00,VWS V14.01,2013-11-12 10:25:00,
2013-11-12 02:27:00,52.0,45.7,30.03,SW,223,0.0,3.0,79,0.00,,---,0.00,VWS V14.01,2013-11-12 10:27:00,
2013-11-12 02:30:00,51.9,45.6,30.03,WSW,243,0.0,3.0,79,0.00,,---,0.00,VWS V14.01,2013-11-12 10:30:00,
2013-11-12 02:32:00,51.9,45.6,30.03,WSW,244,0.0,0.0,79,0.00,,---,0.00,VWS V14.01,2013-11-12 10:32:00,
2013-11-12 02:35:00,51.8,45.5,30.02,ESE,107,0.0,3.0,79,0.00,,---,0.00,VWS V14.01,2013-11-12 10:35:00,
2013-11-12 02:37:00,51.7,45.4,30.02,ESE,105,0.0,0.0,79,0.00,,---,0.00,VWS V14.01,2013-11-12 10:37:00,
2013-11-12 02:40:00,51.6,45.6,30.02,South,169,3.0,3.0,80,0.00,,---,0.00,VWS V14.01,2013-11-12 10:40:00,
2013-11-12 02:42:00,51.5,45.5,30.03,SE,126,0.0,3.0,80,0.00,,---,0.00,VWS V14.01,2013-11-12 10:42:00,
2013-11-12 02:45:00,51.4,45.5,30.03,West,267,0.0,3.0,80,0.00,,---,0.00,VWS V14.01,2013-11-12 10:45:00,
2013-11-12 02:47:00,51.4,45.5,30.03,SSE,155,5.0,8.0,80,0.00,,---,0.00,VWS V14.01,2013-11-12 10:47:00,
2013-11-12 02:50:00,51.4,45.1,30.03,South,190,0.0,8.0,79,0.00,,---,0.00,VWS V14.01,2013-11-12 10:50:00,
2013-11-12 02:52:00,51.5,45.2,30.03,South,191,0.0,9.0,79,0.00,,---,0.00,VWS V14.01,2013-11-12 10:52:00,
2013-11-12 02:55:00,51.6,45.3,30.03,SSW,202,0.0,9.0,79,0.00,,---,0.00,VWS V14.01,2013-11-12 10:55:00,
2013-11-12 02:57:00,51.8,45.5,30.03,SSE,153,0.0,8.0,79,0.00,,---,0.00,VWS V14.01,2013-11-12 10:57:00,
2013-11-12 03:00:00,52.0,45.4,30.03,SE,140,6.0,9.0,78,0.00,,---,0.00,VWS V14.01,2013-11-12 11:00:00,
2013-11-12 03:02:00,52.3,45.3,30.03,SSE,161,0.0,10.0,77,0.00,,---,0.00,VWS V14.01,2013-11-12 11:02:00,
2013-11-12 03:05:00,52.6,45.3,30.03,South,180,0.0,10.0,76,0.00,,---,0.00,VWS V14.01,2013-11-12 11:05:00,
2013-11-12 03:07:00,53.0,45.3,30.03,SSW,198,0.0,10.0,75,0.00,,---,0.00,VWS V14.01,2013-11-12 11:07:00,
2013-11-12 03:10:00,53.3,45.6,30.03,South,169,1.0,18.0,75,0.00,,---,0.00,VWS V14.01,2013-11-12 11:10:00,
2013-11-12 03:12:00,53.5,45.4,30.02,SE,144,3.0,7.0,74,0.00,,---,0.00,VWS V14.01,2013-11-12 11:12:00,
2013-11-12 03:15:00,53.7,45.3,30.02,SSE,168,3.0,13.0,73,0.00,,---,0.00,VWS V14.01,2013-11-12 11:15:00,
2013-11-12 03:17:00,53.9,45.1,30.02,SSE,153,0.0,5.0,72,0.00,,---,0.00,VWS V14.01,2013-11-12 11:17:00,
2013-11-12 03:20:00,54.1,45.3,30.02,South,180,0.0,6.0,72,0.00,,---,0.00,VWS V14.01,2013-11-12 11:20:00,
2013-11-12 03:22:00,54.3,45.1,30.02,SSE,153,0.0,6.0,71,0.00,,---,0.00,VWS V14.01,2013-11-12 11:22:00,
2013-11-12 03:25:00,54.4,45.2,30.02,SE,138,4.0,13.0,71,0.00,,---,0.00,VWS V14.01,2013-11-12 11:25:00,
2013-11-12 03:27:00,54.5,45.3,30.02,South,175,3.0,10.0,71,0.00,,---,0.00,VWS V14.01,2013-11-12 11:27:00,
2013-11-12 03:30:00,54.6,45.4,30.02,SSE,161,0.0,10.0,71,0.00,,---,0.00,VWS V14.01,2013-11-12 11:30:00,
2013-11-12 03:32:00,54.6,45.4,30.02,South,173,2.0,6.0,71,0.00,,---,0.00,VWS V14.01,2013-11-12 11:32:00,
2013-11-12 03:35:00,54.6,45.4,30.02,WNW,286,0.0,7.0,71,0.00,,---,0.00,VWS V14.01,2013-11-12 11:35:00,
2013-11-12 03:37:00,54.6,45.4,30.02,South,188,3.0,3.0,71,0.00,,---,0.00,VWS V14.01,2013-11-12 11:37:00,
2013-11-12 03:40:00,54.6,45.4,30.03,NW,304,0.0,10.0,71,0.00,,---,0.00,VWS V14.01,2013-11-12 11:40:00,
2013-11-12 03:42:00,54.7,45.5,30.03,SW,217,2.0,6.0,71,0.00,,---,0.00,VWS V14.01,2013-11-12 11:42:00,
2013-11-12 03:45:00,54.6,45.4,30.03,NW,306,0.0,6.0,71,0.00,,---,0.00,VWS V14.01,2013-11-12 11:45:00,
2013-11-12 03:47:00,54.6,45.4,30.03,SSE,167,5.0,6.0,71,0.00,,---,0.00,VWS V14.01,2013-11-12 11:47:00,
2013-11-12 03:50:00,54.6,45.4,30.03,South,173,0.0,9.0,71,0.00,,---,0.00,VWS V14.01,2013-11-12 11:50:00,
2013-11-12 03:52:00,54.5,45.3,30.03,SSE,165,0.0,6.0,71,0.00,,---,0.00,VWS V14.01,2013-11-12 11:52:00,
2013-11-12 03:55:00,54.5,45.7,30.03,South,171,0.0,14.0,72,0.00,,---,0.00,VWS V14.01,2013-11-12 11:55:00,
2013-11-12 03:57:00,54.4,45.2,30.03,SE,140,0.0,5.0,71,0.00,,---,0.00,VWS V14.01,2013-11-12 11:57:00,
2013-11-12 04:00:00,54.4,45.2,30.03,WNW,299,0.0,8.0,71,0.00,,---,0.00,VWS V14.01,2013-11-12 12:00:00,
2013-11-12 04:02:00,54.4,45.2,30.03,South,188,0.0,4.0,71,0.00,,---,0.00,VWS V14.01,2013-11-12 12:02:00,
2013-11-12 04:05:00,54.4,45.2,30.03,SSE,159,0.0,7.0,71,0.00,,---,0.00,VWS V14.01,2013-11-12 12:05:00,
2013-11-12 04:07:00,54.4,45.6,30.03,SW,236,0.0,14.0,72,0.00,,---,0.00,VWS V14.01,2013-11-12 12:07:00,
2013-11-12 04:10:00,54.4,45.2,30.03,SE,144,0.0,14.0,71,0.00,,---,0.00,VWS V14.01,2013-11-12 12:10:00,
2013-11-12 04:12:00,54.4,45.6,30.03,South,186,0.0,0.0,72,0.00,,---,0.00,VWS V14.01,2013-11-12 12:12:00,
2013-11-12 04:15:00,54.4,45.9,30.04,South,184,0.0,6.0,73,0.00,,---,0.00,VWS V14.01,2013-11-12 12:15:00,
2013-11-12 04:17:00,54.4,45.9,30.04,SSE,157,9.0,9.0,73,0.00,,---,0.00,VWS V14.01,2013-11-12 12:17:00,
2013-11-12 04:20:00,54.3,45.8,30.05,SE,130,0.0,11.0,73,0.00,,---,0.00,VWS V14.01,2013-11-12 12:20:00,
2013-11-12 04:22:00,54.3,45.8,30.05,WNW,298,0.0,5.0,73,0.00,,---,0.00,VWS V14.01,2013-11-12 12:22:00,
2013-11-12 04:25:00,54.2,46.1,30.05,West,274,0.0,10.0,74,0.00,,---,0.00,VWS V14.01,2013-11-12 12:25:00,
2013-11-12 04:27:00,54.2,46.5,30.06,South,180,0.0,0.0,75,0.00,,---,0.00,VWS V14.01,2013-11-12 12:27:00,
2013-11-12 04:30:00,54.1,46.4,30.05,SE,128,0.0,11.0,75,0.00,,---,0.00,VWS V14.01,2013-11-12 12:30:00,
2013-11-12 04:32:00,54.0,46.6,30.06,West,278,0.0,5.0,76,0.00,,---,0.00,VWS V14.01,2013-11-12 12:32:00,
2013-11-12 04:35:00,53.9,46.9,30.06,South,188,0.0,5.0,77,0.00,,---,0.00,VWS V14.01,2013-11-12 12:35:00,
2013-11-12 04:37:00,53.8,47.1,30.06,South,180,5.0,10.0,78,0.00,,---,0.00,VWS V14.01,2013-11-12 12:37:00,
2013-11-12 04:40:00,53.6,47.3,30.06,South,171,3.0,10.0,79,0.00,,---,0.00,VWS V14.01,2013-11-12 12:40:00,
2013-11-12 04:42:00,53.5,47.5,30.06,SSE,159,0.0,6.0,80,0.00,,---,0.00,VWS V14.01,2013-11-12 12:42:00,
2013-11-12 04:45:00,53.3,47.6,30.06,ESE,117,0.0,6.0,81,0.00,,---,0.00,VWS V14.01,2013-11-12 12:45:00,
2013-11-12 04:47:00,53.1,47.4,30.06,SE,135,2.0,4.0,81,0.00,,---,0.00,VWS V14.01,2013-11-12 12:47:00,
2013-11-12 04:50:00,53.0,47.7,30.07,SSE,164,0.0,4.0,82,0.00,,---,0.00,VWS V14.01,2013-11-12 12:50:00,
2013-11-12 04:52:00,52.8,47.8,30.06,South,173,3.0,4.0,83,0.00,,---,0.00,VWS V14.01,2013-11-12 12:52:00,
2013-11-12 04:55:00,52.6,47.9,30.07,South,172,0.0,5.0,84,0.00,,---,0.00,VWS V14.01,2013-11-12 12:55:00,
2013-11-12 04:57:00,52.5,47.8,30.07,South,186,0.0,6.0,84,0.00,,---,0.00,VWS V14.01,2013-11-12 12:57:00,
2013-11-12 05:00:00,52.4,48.0,30.07,SSE,166,0.0,7.0,85,0.00,,---,0.00,VWS V14.01,2013-11-12 13:00:00,
2013-11-12 05:02:00,52.3,47.9,30.07,East,79,0.0,3.0,85,0.00,,---,0.00,VWS V14.01,2013-11-12 13:02:00,
2013-11-12 05:05:00,52.1,48.0,30.07,SSW,206,0.0,3.0,86,0.00,,---,0.00,VWS V14.01,2013-11-12 13:05:00,
2013-11-12 05:07:00,52.0,48.0,30.07,SW,221,0.0,1.0,86,0.01,,---,0.01,VWS V14.01,2013-11-12 13:07:00,
2013-11-12 05:10:00,51.9,47.8,30.07,ESE,105,0.0,1.0,86,0.01,,---,0.01,VWS V14.01,2013-11-12 13:10:00,
2013-11-12 05:12:00,51.8,47.8,30.08,South,174,0.0,4.0,86,0.01,,---,0.01,VWS V14.01,2013-11-12 13:12:00,
2013-11-12 05:15:00,51.7,47.7,30.08,SSW,198,0.0,5.0,86,0.01,,---,0.01,VWS V14.01,2013-11-12 13:15:00,
2013-11-12 05:17:00,51.6,47.6,30.08,West,279,0.0,0.0,86,0.01,,---,0.01,VWS V14.01,2013-11-12 13:17:00,
2013-11-12 05:20:00,51.6,47.6,30.08,SW,215,0.0,3.0,86,0.01,,---,0.01,VWS V14.01,2013-11-12 13:20:00,
2013-11-12 05:22:00,51.5,47.5,30.08,SSW,201,0.0,1.0,86,0.01,,---,0.01,VWS V14.01,2013-11-12 13:22:00,
2013-11-12 05:25:00,51.5,47.5,30.08,NNW,341,0.0,2.0,86,0.02,,---,0.02,VWS V14.01,2013-11-12 13:25:00,
2013-11-12 05:27:00,51.4,47.4,30.08,South,173,0.0,2.0,86,0.02,,---,0.02,VWS V14.01,2013-11-12 13:27:00,
2013-11-12 05:30:00,51.4,47.4,30.08,SSW,211,0.0,2.0,86,0.02,,---,0.02,VWS V14.01,2013-11-12 13:30:00,
2013-11-12 05:32:00,51.4,47.4,30.08,North,350,0.0,0.0,86,0.02,,---,0.02,VWS V14.01,2013-11-12 13:32:00,
2013-11-12 05:35:00,51.3,47.0,30.08,SSE,149,0.0,3.0,85,0.02,,---,0.02,VWS V14.01,2013-11-12 13:35:00,
2013-11-12 05:37:00,51.3,47.0,30.08,SSE,157,0.0,0.0,85,0.02,,---,0.02,VWS V14.01,2013-11-12 13:37:00,
2013-11-12 05:40:00,51.3,47.0,30.08,SE,140,3.0,3.0,85,0.02,,---,0.02,VWS V14.01,2013-11-12 13:40:00,
2013-11-12 05:42:00,51.2,46.8,30.08,SE,139,1.0,3.0,85,0.02,,---,0.02,VWS V14.01,2013-11-12 13:42:00,
2013-11-12 05:45:00,51.2,46.8,30.09,SE,139,0.0,3.0,85,0.02,,---,0.02,VWS V14.01,2013-11-12 13:45:00,
2013-11-12 05:47:00,51.2,46.8,30.09,SSE,159,1.0,4.0,85,0.02,,---,0.02,VWS V14.01,2013-11-12 13:47:00,
2013-11-12 05:50:00,51.1,46.4,30.09,SE,143,0.0,5.0,84,0.03,,---,0.03,VWS V14.01,2013-11-12 13:50:00,
2013-11-12 05:52:00,51.1,46.4,30.09,ESE,120,2.0,9.0,84,0.03,,---,0.03,VWS V14.01,2013-11-12 13:52:00,
2013-11-12 05:55:00,51.0,46.3,30.09,SE,141,0.0,9.0,84,0.03,,---,0.03,VWS V14.01,2013-11-12 13:55:00,
2013-11-12 05:57:00,50.9,46.2,30.10,SE,141,0.0,0.0,84,0.03,,---,0.03,VWS V14.01,2013-11-12 13:57:00,
2013-11-12 06:00:00,50.9,45.9,30.10,SSE,161,3.0,3.0,83,0.04,,---,0.04,VWS V14.01,2013-11-12 14:00:00,
2013-11-12 06:02:00,50.8,45.8,30.10,SSE,159,3.0,5.0,83,0.04,,---,0.04,VWS V14.01,2013-11-12 14:02:00,
2013-11-12 06:05:00,50.8,45.5,30.10,SSE,164,0.0,5.0,82,0.05,,---,0.05,VWS V14.01,2013-11-12 14:05:00,
2013-11-12 06:07:00,50.8,45.5,30.10,SE,144,5.0,6.0,82,0.05,,---,0.05,VWS V14.01,2013-11-12 14:07:00,
2013-11-12 06:10:00,50.7,45.4,30.10,South,178,0.0,6.0,82,0.05,,---,0.05,VWS V14.01,2013-11-12 14:10:00,
2013-11-12 06:12:00,50.6,45.0,30.10,SE,144,0.0,3.0,81,0.05,,---,0.06,VWS V14.01,2013-11-12 14:12:00,
2013-11-12 06:15:00,50.6,45.0,30.09,SE,140,0.0,9.0,81,0.05,,---,0.06,VWS V14.01,2013-11-12 14:15:00,
2013-11-12 06:17:00,50.6,45.0,30.09,SSE,166,0.0,4.0,81,0.05,,---,0.06,VWS V14.01,2013-11-12 14:17:00,
2013-11-12 06:20:00,50.5,44.9,30.09,SE,143,0.0,6.0,81,0.05,,---,0.06,VWS V14.01,2013-11-12 14:20:00,
2013-11-12 06:22:00,50.5,44.6,30.10,SSE,156,0.0,0.0,80,0.05,,---,0.06,VWS V14.01,2013-11-12 14:22:00,
2013-11-12 06:25:00,50.5,44.6,30.09,South,173,0.0,3.0,80,0.05,,---,0.06,VWS V14.01,2013-11-12 14:25:00,
2013-11-12 06:27:00,50.5,44.6,30.09,SSE,154,0.0,4.0,80,0.05,,---,0.07,VWS V14.01,2013-11-12 14:27:00,
2013-11-12 06:30:00,50.4,44.1,30.09,SE,134,3.0,4.0,79,0.05,,---,0.07,VWS V14.01,2013-11-12 14:30:00,
2013-11-12 06:32:00,50.4,44.1,30.10,SE,139,0.0,3.0,79,0.05,,---,0.07,VWS V14.01,2013-11-12 14:32:00,
2013-11-12 06:35:00,50.3,44.0,30.09,SE,134,0.0,4.0,79,0.05,,---,0.07,VWS V14.01,2013-11-12 14:35:00,
2013-11-12 06:37:00,50.3,44.0,30.09,SE,135,0.0,0.0,79,0.05,,---,0.07,VWS V14.01,2013-11-12 14:37:00,
2013-11-12 06:40:00,50.3,43.7,30.10,SSE,161,3.0,5.0,78,0.06,,---,0.08,VWS V14.01,2013-11-12 14:40:00,
2013-11-12 06:42:00,50.3,43.7,30.10,SSE,149,0.0,4.0,78,0.06,,---,0.08,VWS V14.01,2013-11-12 14:42:00,
2013-11-12 06:45:00,50.2,43.6,30.10,South,178,0.0,4.0,78,0.06,,---,0.08,VWS V14.01,2013-11-12 14:45:00,
2013-11-12 06:47:00,50.2,43.6,30.10,SW,214,0.0,4.0,78,0.06,,---,0.08,VWS V14.01,2013-11-12 14:47:00,
2013-11-12 06:50:00,50.1,43.5,30.10,SSE,153,6.0,7.0,78,0.06,,---,0.08,VWS V14.01,2013-11-12 14:50:00,
2013-11-12 06:52:00,50.1,43.5,30.10,South,180,0.0,6.0,78,0.05,,---,0.08,VWS V14.01,2013-11-12 14:52:00,
2013-11-12 06:55:00,50.1,43.5,30.10,SE,132,0.0,6.0,78,0.05,,---,0.08,VWS V14.01,2013-11-12 14:55:00,
2013-11-12 06:57:00,50.1,43.2,30.11,SSE,150,0.0,0.0,77,0.05,,---,0.08,VWS V14.01,2013-11-12 14:57:00,
2013-11-12 07:00:00,50.0,43.1,30.11,SSE,161,0.0,2.0,77,0.05,,---,0.08,VWS V14.01,2013-11-12 15:00:00,
2013-11-12 07:02:00,50.0,43.1,30.11,SSE,149,0.0,4.0,77,0.04,,---,0.08,VWS V14.01,2013-11-12 15:02:00,
2013-11-12 07:05:00,50.0,42.7,30.11,SSE,149,0.0,4.0,76,0.04,,---,0.08,VWS V14.01,2013-11-12 15:05:00,
2013-11-12 07:07:00,50.0,42.7,30.11,SSE,149,0.0,0.0,76,0.03,,---,0.08,VWS V14.01,2013-11-12 15:07:00,
2013-11-12 07:10:00,49.9,42.7,30.12,SSW,195,0.0,2.0,76,0.03,,---,0.08,VWS V14.01,2013-11-12 15:10:00,
2013-11-12 07:12:00,49.9,42.7,30.12,South,191,0.0,0.0,76,0.03,,---,0.08,VWS V14.01,2013-11-12 15:12:00,
2013-11-12 07:15:00,49.9,42.3,30.12,SW,219,0.0,1.0,75,0.03,,---,0.08,VWS V14.01,2013-11-12 15:15:00,
2013-11-12 07:17:00,49.9,42.3,30.12,West,261,0.0,2.0,75,0.02,,---,0.08,VWS V14.01,2013-11-12 15:17:00,
2013-11-12 07:20:00,49.9,42.3,30.12,West,260,0.0,2.0,75,0.02,,---,0.08,VWS V14.01,2013-11-12 15:20:00,
2013-11-12 07:22:00,49.9,42.3,30.12,SSE,167,0.0,0.0,75,0.02,,---,0.08,VWS V14.01,2013-11-12 15:22:00,
2013-11-12 07:25:00,49.9,42.0,30.12,SW,232,0.0,0.0,74,0.03,,---,0.09,VWS V14.01,2013-11-12 15:25:00,
2013-11-12 07:27:00,49.9,42.0,30.12,WNW,286,2.0,2.0,74,0.03,,---,0.09,VWS V14.01,2013-11-12 15:27:00,
2013-11-12 07:30:00,49.9,42.0,30.13,SW,214,0.0,2.0,74,0.03,,---,0.09,VWS V14.01,2013-11-12 15:30:00,
2013-11-12 07:32:00,49.9,41.6,30.13,SW,219,0.0,0.0,73,0.02,,---,0.09,VWS V14.01,2013-11-12 15:32:00,
2013-11-12 07:35:00,49.9,41.6,30.13,SW,215,0.0,0.0,73,0.02,,---,0.09,VWS V14.01,2013-11-12 15:35:00,
2013-11-12 07:37:00,49.9,41.6,30.14,SSW,196,0.0,1.0,73,0.02,,---,0.09,VWS V14.01,2013-11-12 15:37:00,
2013-11-12 07:40:00,50.0,41.3,30.14,South,173,0.0,1.0,72,0.02,,---,0.09,VWS V14.01,2013-11-12 15:40:00,
2013-11-12 07:42:00,50.0,41.3,30.14,West,272,0.0,0.0,72,0.01,,---,0.09,VWS V14.01,2013-11-12 15:42:00,
2013-11-12 07:45:00,50.0,41.3,30.14,WNW,298,0.0,0.0,72,0.01,,---,0.09,VWS V14.01,2013-11-12 15:45:00,
2013-11-12 07:47:00,50.0,41.3,30.15,WNW,287,0.0,0.0,72,0.01,,---,0.09,VWS V14.01,2013-11-12 15:47:00,
2013-11-12 07:50:00,50.0,41.3,30.15,SW,222,0.0,1.0,72,0.01,,---,0.09,VWS V14.01,2013-11-12 15:50:00,
2013-11-12 07:52:00,49.9,40.9,30.15,SW,222,0.0,0.0,71,0.01,,---,0.09,VWS V14.01,2013-11-12 15:52:00,
2013-11-12 07:55:00,49.9,40.9,30.15,SW,222,0.0,0.0,71,0.01,,---,0.09,VWS V14.01,2013-11-12 15:55:00,
2013-11-12 07:57:00,50.0,41.0,30.16,SW,236,0.0,0.0,71,0.01,,---,0.09,VWS V14.01,2013-11-12 15:57:00,
2013-11-12 08:00:00,49.9,40.9,30.16,SW,219,0.0,0.0,71,0.01,,---,0.09,VWS V14.01,2013-11-12 16:00:00,
2013-11-12 08:02:00,49.9,40.9,30.16,SW,219,0.0,0.0,71,0.01,,---,0.09,VWS V14.01,2013-11-12 16:02:00,
2013-11-12 08:05:00,49.9,40.9,30.16,SW,219,0.0,0.0,71,0.01,,---,0.09,VWS V14.01,2013-11-12 16:05:00,
2013-11-12 08:07:00,49.9,40.9,30.16,SW,219,0.0,0.0,71,0.01,,---,0.09,VWS V14.01,2013-11-12 16:07:00,
2013-11-12 08:10:00,49.9,40.9,30.16,South,173,0.0,0.0,71,0.01,,---,0.09,VWS V14.01,2013-11-12 16:10:00,
2013-11-12 08:12:00,49.9,40.9,30.16,South,169,0.0,0.0,71,0.01,,---,0.09,VWS V14.01,2013-11-12 16:12:00,
2013-11-12 08:15:00,49.9,40.5,30.16,SSE,163,0.0,2.0,70,0.01,,---,0.09,VWS V14.01,2013-11-12 16:15:00,
2013-11-12 08:17:00,49.9,40.5,30.16,SSE,163,0.0,0.0,70,0.01,,---,0.09,VWS V14.01,2013-11-12 16:17:00,
2013-11-12 08:20:00,49.9,40.5,30.16,SE,132,0.0,0.0,70,0.01,,---,0.09,VWS V14.01,2013-11-12 16:20:00,
2013-11-12 08:22:00,49.9,40.5,30.17,SE,132,0.0,0.0,70,0.01,,---,0.09,VWS V14.01,2013-11-12 16:22:00,
2013-11-12 08:25:00,49.9,40.2,30.17,SE,142,0.0,3.0,69,0.01,,---,0.09,VWS V14.01,2013-11-12 16:25:00,
2013-11-12 08:27:00,50.0,40.2,30.17,SE,143,0.0,0.0,69,0.00,,---,0.09,VWS V14.01,2013-11-12 16:27:00,
2013-11-12 08:30:00,50.0,40.2,30.17,SE,142,0.0,0.0,69,0.01,,---,0.10,VWS V14.01,2013-11-12 16:30:00,
2013-11-12 08:32:00,50.0,40.2,30.17,SE,142,0.0,0.0,69,0.01,,---,0.10,VWS V14.01,2013-11-12 16:32:00,
2013-11-12 08:35:00,50.0,39.9,30.17,ESE,105,5.0,5.0,68,0.01,,---,0.10,VWS V14.01,2013-11-12 16:35:00,
2013-11-12 08:37:00,50.0,39.9,30.17,SSE,150,3.0,6.0,68,0.01,,---,0.10,VWS V14.01,2013-11-12 16:37:00,
2013-11-12 08:40:00,50.1,40.0,30.17,SSW,199,2.0,8.0,68,0.01,,---,0.10,VWS V14.01,2013-11-12 16:40:00,
2013-11-12 08:42:00,50.1,40.0,30.17,SE,125,0.0,9.0,68,0.01,,---,0.10,VWS V14.01,2013-11-12 16:42:00,
2013-11-12 08:45:00,50.1,39.6,30.17,SSE,160,2.0,9.0,67,0.01,,---,0.10,VWS V14.01,2013-11-12 16:45:00,
2013-11-12 08:47:00,50.2,39.7,30.17,SE,142,4.0,9.0,67,0.01,,---,0.10,VWS V14.01,2013-11-12 16:47:00,
2013-11-12 08:50:00,50.3,39.8,30.17,SSE,159,1.0,9.0,67,0.01,,---,0.10,VWS V14.01,2013-11-12 16:50:00,
2013-11-12 08:52:00,50.3,39.8,30.18,South,171,0.0,4.0,67,0.01,,---,0.10,VWS V14.01,2013-11-12 16:52:00,
2013-11-12 08:55:00,50.3,39.4,30.18,SE,142,0.0,4.0,66,0.01,,---,0.10,VWS V14.01,2013-11-12 16:55:00,
2013-11-12 08:57:00,50.3,39.4,30.18,South,169,0.0,3.0,66,0.01,,---,0.10,VWS V14.01,2013-11-12 16:57:00,
2013-11-12 09:00:00,50.4,39.5,30.18,SSE,164,0.0,10.0,66,0.01,,---,0.10,VWS V14.01,2013-11-12 17:00:00,
2013-11-12 09:02:00,50.4,39.5,30.18,SE,142,2.0,8.0,66,0.01,,---,0.10,VWS V14.01,2013-11-12 17:02:00,
2013-11-12 09:05:00,50.5,39.6,30.18,SSE,151,0.0,8.0,66,0.01,,---,0.10,VWS V14.01,2013-11-12 17:05:00,
2013-11-12 09:07:00,50.5,39.6,30.18,NW,308,0.0,6.0,66,0.01,,---,0.10,VWS V14.01,2013-11-12 17:07:00,
2013-11-12 09:10:00,50.6,39.7,30.18,SE,135,6.0,7.0,66,0.01,,---,0.10,VWS V14.01,2013-11-12 17:10:00,
2013-11-12 09:12:00,50.6,39.3,30.18,SSE,150,0.0,10.0,65,0.01,,---,0.10,VWS V14.01,2013-11-12 17:12:00,
2013-11-12 09:15:00,50.6,39.3,30.18,SSE,166,2.0,13.0,65,0.01,,---,0.10,VWS V14.01,2013-11-12 17:15:00,
2013-11-12 09:17:00,50.6,39.3,30.18,South,182,2.0,11.0,65,0.01,,---,0.10,VWS V14.01,2013-11-12 17:17:00,
2013-11-12 09:20:00,50.6,39.3,30.18,SSE,155,0.0,11.0,65,0.01,,---,0.10,VWS V14.01,2013-11-12 17:20:00,
2013-11-12 09:22:00,50.6,39.3,30.18,ESE,114,5.0,10.0,65,0.01,,---,0.10,VWS V14.01,2013-11-12 17:22:00,
2013-11-12 09:25:00,50.6,39.7,30.18,SSE,162,6.0,10.0,66,0.01,,---,0.10,VWS V14.01,2013-11-12 17:25:00,
2013-11-12 09:27:00,50.6,39.7,30.18,South,170,0.0,10.0,66,0.01,,---,0.10,VWS V14.01,2013-11-12 17:27:00,
2013-11-12 09:30:00,50.6,39.7,30.17,SE,141,5.0,10.0,66,0.01,,---,0.10,VWS V14.01,2013-11-12 17:30:00,
2013-11-12 09:32:00,50.6,39.7,30.17,South,173,4.0,7.0,66,0.00,,---,0.10,VWS V14.01,2013-11-12 17:32:00,
2013-11-12 09:35:00,50.5,39.6,30.17,SSE,162,0.0,10.0,66,0.00,,---,0.10,VWS V14.01,2013-11-12 17:35:00,
2013-11-12 09:37:00,50.5,39.6,30.17,South,173,0.0,5.0,66,0.00,,---,0.10,VWS V14.01,2013-11-12 17:37:00,
2013-11-12 09:40:00,50.5,39.6,30.17,SE,146,0.0,10.0,66,0.00,,---,0.10,VWS V14.01,2013-11-12 17:40:00,
2013-11-12 09:42:00,50.5,39.6,30.17,ESE,115,0.0,3.0,66,0.00,,---,0.10,VWS V14.01,2013-11-12 17:42:00,
2013-11-12 09:45:00,50.5,39.6,30.17,SE,128,3.0,5.0,66,0.00,,---,0.10,VWS V14.01,2013-11-12 17:45:00,
2013-11-12 09:47:00,50.6,39.7,30.17,SSE,156,0.0,4.0,66,0.00,,---,0.10,VWS V14.01,2013-11-12 17:47:00,
2013-11-12 09:50:00,50.7,39.4,30.17,SSW,195,0.0,13.0,65,0.00,,---,0.10,VWS V14.01,2013-11-12 17:50:00,
2013-11-12 09:52:00,50.8,39.5,30.17,South,188,0.0,0.0,65,0.00,,---,0.10,VWS V14.01,2013-11-12 17:52:00,
2013-11-12 09:55:00,50.9,39.2,30.18,East,91,0.0,8.0,64,0.00,,---,0.10,VWS V14.01,2013-11-12 17:55:00,
2013-11-12 09:57:00,50.9,39.2,30.18,South,189,0.0,6.0,64,0.00,,---,0.10,VWS V14.01,2013-11-12 17:57:00,
2013-11-12 10:00:00,51.0,39.3,30.18,SSE,149,0.0,6.0,64,0.00,,---,0.10,VWS V14.01,2013-11-12 18:00:00,
2013-11-12 10:02:00,51.1,39.4,30.18,SSW,211,0.0,5.0,64,0.00,,---,0.10,VWS V14.01,2013-11-12 18:02:00,
2013-11-12 10:05:00,51.2,39.5,30.18,SSW,205,0.0,10.0,64,0.00,,---,0.10,VWS V14.01,2013-11-12 18:05:00,
2013-11-12 10:07:00,51.2,39.5,30.18,SW,214,0.0,5.0,64,0.00,,---,0.10,VWS V14.01,2013-11-12 18:07:00,
2013-11-12 10:10:00,51.2,39.0,30.18,SSE,148,3.0,13.0,63,0.00,,---,0.10,VWS V14.01,2013-11-12 18:10:00,
2013-11-12 10:12:00,51.3,39.2,30.18,SE,141,0.0,3.0,63,0.00,,---,0.10,VWS V14.01,2013-11-12 18:12:00,
2013-11-12 10:15:00,51.3,39.2,30.18,SSE,167,0.0,7.0,63,0.00,,---,0.10,VWS V14.01,2013-11-12 18:15:00,
2013-11-12 10:17:00,51.4,39.2,30.18,SSW,193,0.0,0.0,63,0.00,,---,0.10,VWS V14.01,2013-11-12 18:17:00,
2013-11-12 10:20:00,51.5,39.3,30.18,SSE,149,0.0,6.0,63,0.00,,---,0.10,VWS V14.01,2013-11-12 18:20:00,
2013-11-12 10:22:00,51.5,39.3,30.18,SSE,149,0.0,0.0,63,0.00,,---,0.10,VWS V14.01,2013-11-12 18:22:00,
2013-11-12 10:25:00,51.6,39.4,30.18,SSE,154,0.0,5.0,63,0.00,,---,0.10,VWS V14.01,2013-11-12 18:25:00,
2013-11-12 10:27:00,51.6,39.4,30.18,SSE,156,1.0,16.0,63,0.00,,---,0.10,VWS V14.01,2013-11-12 18:27:00,
2013-11-12 10:30:00,51.8,39.2,30.18,SE,136,0.0,16.0,62,0.00,,---,0.10,VWS V14.01,2013-11-12 18:30:00,
2013-11-12 10:32:00,51.9,39.3,30.18,SSW,205,1.0,1.0,62,0.00,,---,0.10,VWS V14.01,2013-11-12 18:32:00,
2013-11-12 10:35:00,52.0,39.4,30.18,SE,133,0.0,6.0,62,0.00,,---,0.10,VWS V14.01,2013-11-12 18:35:00,
2013-11-12 10:37:00,52.0,39.4,30.18,SE,132,0.0,1.0,62,0.00,,---,0.10,VWS V14.01,2013-11-12 18:37:00,
2013-11-12 10:40:00,52.1,39.5,30.19,South,173,0.0,9.0,62,0.00,,---,0.10,VWS V14.01,2013-11-12 18:40:00,
2013-11-12 10:42:00,52.1,39.5,30.18,South,186,0.0,0.0,62,0.00,,---,0.10,VWS V14.01,2013-11-12 18:42:00,
2013-11-12 10:45:00,52.1,39.9,30.19,SSE,149,0.0,9.0,63,0.00,,---,0.10,VWS V14.01,2013-11-12 18:45:00,
2013-11-12 10:47:00,52.1,39.9,30.19,South,169,0.0,3.0,63,0.00,,---,0.10,VWS V14.01,2013-11-12 18:47:00,
2013-11-12 10:50:00,52.2,40.0,30.19,NE,36,0.0,6.0,63,0.00,,---,0.10,VWS V14.01,2013-11-12 18:50:00,
2013-11-12 10:52:00,52.2,40.0,30.19,SE,140,0.0,9.0,63,0.00,,---,0.10,VWS V14.01,2013-11-12 18:52:00,
2013-11-12 10:55:00,52.3,40.5,30.19,SSE,158,0.0,9.0,64,0.00,,---,0.10,VWS V14.01,2013-11-12 18:55:00,
2013-11-12 10:57:00,52.3,40.9,30.19,SE,125,0.0,0.0,65,0.00,,---,0.10,VWS V14.01,2013-11-12 18:57:00,
2013-11-12 11:00:00,52.3,40.9,30.19,SSW,192,3.0,5.0,65,0.00,,---,0.10,VWS V14.01,2013-11-12 19:00:00,
2013-11-12 11:02:00,52.4,41.4,30.19,South,171,0.0,0.0,66,0.00,,---,0.10,VWS V14.01,2013-11-12 19:02:00,
2013-11-12 11:05:00,52.4,41.4,30.19,East,96,0.0,6.0,66,0.00,,---,0.10,VWS V14.01,2013-11-12 19:05:00,
2013-11-12 11:07:00,52.4,41.4,30.19,ESE,119,0.0,0.0,66,0.00,,---,0.10,VWS V14.01,2013-11-12 19:07:00,
2013-11-12 11:10:00,52.5,41.9,30.19,SE,132,3.0,4.0,67,0.00,,---,0.10,VWS V14.01,2013-11-12 19:10:00,
2013-11-12 11:12:00,52.5,41.9,30.19,SE,144,2.0,3.0,67,0.00,,---,0.10,VWS V14.01,2013-11-12 19:12:00,
2013-11-12 11:15:00,52.6,42.3,30.19,West,263,7.0,7.0,68,0.00,,---,0.10,VWS V14.01,2013-11-12 19:15:00,
2013-11-12 11:17:00,52.7,42.5,30.19,ESE,117,6.0,11.0,68,0.00,,---,0.10,VWS V14.01,2013-11-12 19:17:00,
2013-11-12 11:20:00,52.8,42.9,30.20,SSE,150,0.0,11.0,69,0.00,,---,0.10,VWS V14.01,2013-11-12 19:20:00,
2013-11-12 11:21:00,52.8,42.9,30.20,SSW,192,0.0,4.0,69,0.00,,---,0.10,VWS V14.01,2013-11-12 19:21:00,
2013-11-12 11:25:00,52.9,43.4,30.20,SSW,203,0.0,4.0,70,0.00,,---,0.10,VWS V14.01,2013-11-12 19:25:00,
2013-11-12 11:26:00,52.9,43.4,30.20,WNW,292,0.0,3.0,70,0.00,,---,0.10,VWS V14.01,2013-11-12 19:26:00,
2013-11-12 11:30:00,53.0,43.9,30.21,SE,136,0.0,4.0,71,0.00,,---,0.10,VWS V14.01,2013-11-12 19:30:00,
2013-11-12 11:31:00,53.1,43.6,30.21,SSE,155,0.0,2.0,70,0.00,,---,0.10,VWS V14.01,2013-11-12 19:31:00,
2013-11-12 11:35:00,53.4,43.5,30.21,East,88,0.0,6.0,69,0.00,,---,0.10,VWS V14.01,2013-11-12 19:35:00,
2013-11-12 11:36:00,53.5,44.0,30.21,SW,233,1.0,1.0,70,0.00,,---,0.10,VWS V14.01,2013-11-12 19:36:00,
2013-11-12 11:40:00,53.6,44.1,30.21,WSW,245,0.0,1.0,70,0.00,,---,0.10,VWS V14.01,2013-11-12 19:40:00,
2013-11-12 11:41:00,53.8,44.3,30.21,ESE,103,1.0,2.0,70,0.00,,---,0.10,VWS V14.01,2013-11-12 19:41:00,
2013-11-12 11:45:00,54.0,44.1,30.21,SSW,211,0.0,2.0,69,0.00,,---,0.10,VWS V14.01,2013-11-12 19:45:00,
2013-11-12 11:46:00,54.1,44.2,30.22,SSW,206,1.0,3.0,69,0.00,,---,0.10,VWS V14.01,2013-11-12 19:46:00,
2013-11-12 11:50:00,54.2,45.0,30.22,SW,223,0.0,5.0,71,0.00,,---,0.10,VWS V14.01,2013-11-12 19:50:00,
2013-11-12 11:51:00,54.3,45.5,30.22,SE,129,0.0,0.0,72,0.00,,---,0.10,VWS V14.01,2013-11-12 19:51:00,
2013-11-12 11:55:00,54.3,46.6,30.22,SW,229,0.0,5.0,75,0.00,,---,0.10,VWS V14.01,2013-11-12 19:55:00,
2013-11-12 11:56:00,54.3,46.9,30.22,SW,233,0.0,0.0,76,0.00,,---,0.10,VWS V14.01,2013-11-12 19:56:00,
2013-11-12 12:00:00,54.5,47.1,30.22,SW,234,0.0,0.0,76,0.00,,---,0.10,VWS V14.01,2013-11-12 20:00:00,
2013-11-12 12:01:00,54.5,47.5,30.23,WSW,244,2.0,2.0,77,0.00,,---,0.10,VWS V14.01,2013-11-12 20:01:00,
2013-11-12 12:05:00,54.5,48.5,30.23,WSW,241,0.0,2.0,80,0.00,,---,0.10,VWS V14.01,2013-11-12 20:05:00,
2013-11-12 12:06:00,54.5,48.5,30.23,WSW,242,0.0,0.0,80,0.00,,---,0.10,VWS V14.01,2013-11-12 20:06:00,
2013-11-12 12:10:00,54.5,48.8,30.23,WSW,251,0.0,4.0,81,0.00,,---,0.10,VWS V14.01,2013-11-12 20:10:00,
2013-11-12 12:11:00,54.5,48.8,30.23,WSW,251,0.0,0.0,81,0.00,,---,0.10,VWS V14.01,2013-11-12 20:11:00,
2013-11-12 12:15:00,54.6,48.9,30.23,WSW,250,0.0,0.0,81,0.00,,---,0.10,VWS V14.01,2013-11-12 20:15:00,
2013-11-12 12:16:00,54.6,48.6,30.23,South,171,2.0,2.0,80,0.00,,---,0.10,VWS V14.01,2013-11-12 20:16:00,
2013-11-12 12:20:00,54.6,49.2,30.23,SSW,200,0.0,3.0,82,0.00,,---,0.10,VWS V14.01,2013-11-12 20:20:00,
2013-11-12 12:21:00,54.6,49.2,30.23,SW,233,1.0,5.0,82,0.00,,---,0.10,VWS V14.01,2013-11-12 20:21:00,
2013-11-12 12:25:00,54.6,49.2,30.23,SW,233,0.0,5.0,82,0.00,,---,0.10,VWS V14.01,2013-11-12 20:25:00,
2013-11-12 12:26:00,54.6,49.2,30.23,WSW,255,5.0,5.0,82,0.00,,---,0.10,VWS V14.01,2013-11-12 20:26:00,
2013-11-12 12:30:00,54.5,49.5,30.23,SW,226,0.0,7.0,83,0.00,,---,0.10,VWS V14.01,2013-11-12 20:30:00,
2013-11-12 12:31:00,54.5,49.5,30.23,SW,226,0.0,0.0,83,0.00,,---,0.10,VWS V14.01,2013-11-12 20:31:00,
2013-11-12 12:35:00,54.5,49.5,30.23,WSW,250,1.0,2.0,83,0.00,,---,0.10,VWS V14.01,2013-11-12 20:35:00,
2013-11-12 12:36:00,54.5,49.5,30.23,West,274,0.0,2.0,83,0.00,,---,0.10,VWS V14.01,2013-11-12 20:36:00,
2013-11-12 12:40:00,54.4,49.3,30.23,WSW,254,0.0,2.0,83,0.00,,---,0.10,VWS V14.01,2013-11-12 20:40:00,
2013-11-12 12:41:00,54.4,49.3,30.23,WSW,254,0.0,0.0,83,0.00,,---,0.10,VWS V14.01,2013-11-12 20:41:00,
2013-11-12 12:45:00,54.4,49.3,30.23,WSW,254,0.0,0.0,83,0.00,,---,0.10,VWS V14.01,2013-11-12 20:45:00,
2013-11-12 12:46:00,54.4,49.3,30.24,WSW,254,0.0,0.0,83,0.00,,---,0.10,VWS V14.01,2013-11-12 20:46:00,
2013-11-12 12:50:00,54.3,49.3,30.24,West,264,4.0,7.0,83,0.00,,---,0.10,VWS V14.01,2013-11-12 20:50:00,
2013-11-12 12:51:00,54.2,49.5,30.24,WSW,250,3.0,5.0,84,0.00,,---,0.10,VWS V14.01,2013-11-12 20:51:00,
2013-11-12 12:55:00,54.2,49.5,30.24,West,268,0.0,5.0,84,0.00,,---,0.10,VWS V14.01,2013-11-12 20:55:00,
2013-11-12 12:56:00,54.1,49.4,30.24,West,266,0.0,0.0,84,0.00,,---,0.10,VWS V14.01,2013-11-12 20:56:00,
2013-11-12 13:00:00,54.1,49.4,30.24,NNW,327,0.0,1.0,84,0.00,,---,0.10,VWS V14.01,2013-11-12 21:00:00,
2013-11-12 13:01:00,54.1,49.4,30.24,SSE,148,0.0,0.0,84,0.00,,---,0.10,VWS V14.01,2013-11-12 21:01:00,
2013-11-12 13:05:00,54.0,49.3,30.24,South,172,0.0,3.0,84,0.00,,---,0.10,VWS V14.01,2013-11-12 21:05:00,
2013-11-12 13:06:00,54.0,49.0,30.24,South,175,0.0,0.0,83,0.00,,---,0.10,VWS V14.01,2013-11-12 21:06:00,
2013-11-12 13:10:00,54.0,49.0,30.24,WSW,251,0.0,3.0,83,0.00,,---,0.10,VWS V14.01,2013-11-12 21:10:00,
2013-11-12 13:11:00,54.0,49.0,30.24,WSW,251,0.0,0.0,83,0.00,,---,0.10,VWS V14.01,2013-11-12 21:11:00,
2013-11-12 13:15:00,54.1,49.1,30.24,SW,234,0.0,0.0,83,0.00,,---,0.10,VWS V14.01,2013-11-12 21:15:00,
2013-11-12 13:16:00,54.0,48.6,30.24,SW,234,0.0,0.0,82,0.00,,---,0.10,VWS V14.01,2013-11-12 21:16:00,
2013-11-12 13:20:00,54.1,48.7,30.24,SW,234,0.0,0.0,82,0.00,,---,0.10,VWS V14.01,2013-11-12 21:20:00,
2013-11-12 13:21:00,54.1,48.4,30.24,WSW,245,0.0,3.0,81,0.00,,---,0.10,VWS V14.01,2013-11-12 21:21:00,
2013-11-12 13:25:00,54.1,48.4,30.24,WSW,245,0.0,3.0,81,0.00,,---,0.10,VWS V14.01,2013-11-12 21:25:00,
2013-11-12 13:26:00,54.1,48.4,30.24,WSW,245,0.0,0.0,81,0.00,,---,0.10,VWS V14.01,2013-11-12 21:26:00,
2013-11-12 13:30:00,54.2,48.2,30.24,WSW,245,0.0,0.0,80,0.00,,---,0.10,VWS V14.01,2013-11-12 21:30:00,
2013-11-12 13:31:00,54.2,48.2,30.24,WSW,245,0.0,0.0,80,0.00,,---,0.10,VWS V14.01,2013-11-12 21:31:00,
2013-11-12 13:35:00,54.2,48.2,30.24,WSW,245,0.0,0.0,80,0.00,,---,0.10,VWS V14.01,2013-11-12 21:35:00,
2013-11-12 13:36:00,54.2,48.2,30.24,WSW,245,0.0,0.0,80,0.00,,---,0.10,VWS V14.01,2013-11-12 21:36:00,
2013-11-12 13:40:00,54.3,47.9,30.24,WSW,245,0.0,0.0,79,0.00,,---,0.10,VWS V14.01,2013-11-12 21:40:00,
2013-11-12 13:41:00,54.3,47.9,30.24,WSW,245,0.0,0.0,79,0.00,,---,0.10,VWS V14.01,2013-11-12 21:41:00,
2013-11-12 13:45:00,54.3,47.9,30.24,WSW,256,6.0,6.0,79,0.00,,---,0.10,VWS V14.01,2013-11-12 21:45:00,
2013-11-12 13:46:00,54.3,48.3,30.24,West,263,0.0,7.0,80,0.00,,---,0.10,VWS V14.01,2013-11-12 21:46:00,
2013-11-12 13:50:00,54.3,48.3,30.24,WSW,249,0.0,7.0,80,0.00,,---,0.10,VWS V14.01,2013-11-12 21:50:00,
2013-11-12 13:51:00,54.3,48.3,30.24,WSW,242,0.0,4.0,80,0.00,,---,0.10,VWS V14.01,2013-11-12 21:51:00,
2013-11-12 13:55:00,54.4,48.0,30.24,West,271,4.0,5.0,79,0.00,,---,0.10,VWS V14.01,2013-11-12 21:55:00,
2013-11-12 13:56:00,54.4,48.0,30.24,WSW,257,0.0,4.0,79,0.00,,---,0.10,VWS V14.01,2013-11-12 21:56:00,
2013-11-12 14:00:00,54.5,48.1,30.24,SSW,211,1.0,7.0,79,0.00,,---,0.10,VWS V14.01,2013-11-12 22:00:00,
2013-11-12 14:01:00,54.4,48.4,30.24,SSE,151,1.0,7.0,80,0.00,,---,0.10,VWS V14.01,2013-11-12 22:01:00,
2013-11-12 14:05:00,54.5,48.8,30.24,West,276,1.0,7.0,81,0.00,,---,0.10,VWS V14.01,2013-11-12 22:05:00,
2013-11-12 14:06:00,54.5,48.8,30.24,SW,226,0.0,4.0,81,0.00,,---,0.10,VWS V14.01,2013-11-12 22:06:00,
2013-11-12 14:10:00,54.5,48.8,30.24,South,182,0.0,4.0,81,0.00,,---,0.10,VWS V14.01,2013-11-12 22:10:00,
2013-11-12 14:11:00,54.6,48.6,30.24,SW,236,0.0,4.0,80,0.00,,---,0.10,VWS V14.01,2013-11-12 22:11:00,
2013-11-12 14:15:00,54.7,49.0,30.24,South,177,0.0,5.0,81,0.00,,---,0.10,VWS V14.01,2013-11-12 22:15:00,
2013-11-12 14:16:00,54.6,48.9,30.24,SSE,149,0.0,1.0,81,0.00,,---,0.10,VWS V14.01,2013-11-12 22:16:00,
2013-11-12 14:20:00,54.7,49.0,30.25,WSW,242,0.0,12.0,81,0.00,,---,0.10,VWS V14.01,2013-11-12 22:20:00,
2013-11-12 14:21:00,54.8,49.1,30.24,West,260,0.0,4.0,81,0.00,,---,0.10,VWS V14.01,2013-11-12 22:21:00,
2013-11-12 14:25:00,54.8,49.4,30.24,West,267,7.0,9.0,82,0.00,,---,0.10,VWS V14.01,2013-11-12 22:25:00,
2013-11-12 14:26:00,54.8,49.4,30.24,SW,231,10.0,10.0,82,0.00,,---,0.10,VWS V14.01,2013-11-12 22:26:00,
2013-11-12 14:30:00,54.9,49.5,30.25,WNW,302,0.0,10.0,82,0.00,,---,0.10,VWS V14.01,2013-11-12 22:30:00,
2013-11-12 14:31:00,54.9,49.5,30.24,SW,217,0.0,6.0,82,0.00,,---,0.10,VWS V14.01,2013-11-12 22:31:00,
2013-11-12 14:35:00,54.9,49.8,30.25,West,271,0.0,6.0,83,0.00,,---,0.10,VWS V14.01,2013-11-12 22:35:00,
2013-11-12 14:36:00,54.9,49.8,30.25,SSE,163,0.0,0.0,83,0.00,,---,0.10,VWS V14.01,2013-11-12 22:36:00,
2013-11-12 14:40:00,54.9,49.8,30.25,West,260,0.0,7.0,83,0.00,,---,0.10,VWS V14.01,2013-11-12 22:40:00,
2013-11-12 14:41:00,54.9,49.8,30.25,SE,133,0.0,4.0,83,0.00,,---,0.10,VWS V14.01,2013-11-12 22:41:00,
2013-11-12 14:45:00,54.9,49.8,30.25,WSW,252,0.0,4.0,83,0.00,,---,0.10,VWS V14.01,2013-11-12 22:45:00,
2013-11-12 14:46:00,54.9,49.8,30.25,WSW,252,0.0,0.0,83,0.00,,---,0.10,VWS V14.01,2013-11-12 22:46:00,
2013-11-12 14:50:00,54.9,49.8,30.25,South,186,0.0,0.0,83,0.00,,---,0.10,VWS V14.01,2013-11-12 22:50:00,
2013-11-12 14:51:00,54.9,49.8,30.25,South,186,0.0,0.0,83,0.00,,---,0.10,VWS V14.01,2013-11-12 22:51:00,
2013-11-12 14:55:00,54.9,49.8,30.25,SSW,203,0.0,0.0,83,0.00,,---,0.10,VWS V14.01,2013-11-12 22:55:00,
2013-11-12 14:56:00,54.9,49.8,30.25,SSW,203,0.0,0.0,83,0.00,,---,0.10,VWS V14.01,2013-11-12 22:56:00,
2013-11-12 15:00:00,54.9,49.8,30.25,SSW,203,0.0,0.0,83,0.00,,---,0.10,VWS V14.01,2013-11-12 23:00:00,
2013-11-12 15:01:00,54.9,49.8,30.25,SSW,203,0.0,0.0,83,0.00,,---,0.10,VWS V14.01,2013-11-12 23:01:00,
2013-11-12 15:05:00,55.0,49.6,30.25,SSW,203,0.0,0.0,82,0.00,,---,0.10,VWS V14.01,2013-11-12 23:05:00,
2013-11-12 15:06:00,55.0,49.6,30.25,SSW,203,0.0,0.0,82,0.00,,---,0.10,VWS V14.01,2013-11-12 23:06:00,
2013-11-12 15:10:00,55.1,49.4,30.25,WSW,238,3.0,3.0,81,0.00,,---,0.10,VWS V14.01,2013-11-12 23:10:00,
2013-11-12 15:11:00,55.1,49.4,30.25,WSW,238,0.0,3.0,81,0.00,,---,0.10,VWS V14.01,2013-11-12 23:11:00,
2013-11-12 15:15:00,55.1,49.7,30.25,WSW,238,0.0,3.0,82,0.00,,---,0.10,VWS V14.01,2013-11-12 23:15:00,
2013-11-12 15:16:00,55.1,49.7,30.25,WSW,238,0.0,0.0,82,0.00,,---,0.10,VWS V14.01,2013-11-12 23:16:00,
2013-11-12 15:20:00,55.2,50.1,30.25,WSW,237,1.0,1.0,83,0.00,,---,0.10,VWS V14.01,2013-11-12 23:20:00,
2013-11-12 15:21:00,55.2,49.8,30.25,WSW,237,2.0,2.0,82,0.00,,---,0.10,VWS V14.01,2013-11-12 23:21:00,
2013-11-12 15:25:00,55.3,50.2,30.25,WSW,238,0.0,2.0,83,0.00,,---,0.10,VWS V14.01,2013-11-12 23:25:00,
2013-11-12 15:26:00,55.3,50.6,30.25,WSW,237,0.0,0.0,84,0.00,,---,0.10,VWS V14.01,2013-11-12 23:26:00,
2013-11-12 15:30:00,55.3,50.6,30.25,WSW,238,0.0,0.0,84,0.00,,---,0.10,VWS V14.01,2013-11-12 23:30:00,
2013-11-12 15:31:00,55.3,50.6,30.25,WSW,238,0.0,0.0,84,0.00,,---,0.10,VWS V14.01,2013-11-12 23:31:00,
2013-11-12 15:35:00,55.3,50.2,30.25,WSW,238,0.0,0.0,83,0.00,,---,0.10,VWS V14.01,2013-11-12 23:35:00,
2013-11-12 15:36:00,55.3,50.2,30.25,WSW,238,0.0,0.0,83,0.00,,---,0.10,VWS V14.01,2013-11-12 23:36:00,
2013-11-12 15:40:00,55.4,50.0,30.25,WSW,237,0.0,0.0,82,0.00,,---,0.10,VWS V14.01,2013-11-12 23:40:00,
2013-11-12 15:41:00,55.4,51.0,30.25,WSW,238,0.0,0.0,85,0.00,,---,0.10,VWS V14.01,2013-11-12 23:41:00,
2013-11-12 15:45:00,55.5,50.1,30.25,WSW,237,0.0,0.0,82,0.00,,---,0.10,VWS V14.01,2013-11-12 23:45:00,
2013-11-12 15:46:00,55.5,50.1,30.25,WSW,237,0.0,0.0,82,0.00,,---,0.10,VWS V14.01,2013-11-12 23:46:00,
2013-11-12 15:50:00,55.5,50.1,30.25,SW,235,0.0,0.0,82,0.00,,---,0.10,VWS V14.01,2013-11-12 23:50:00,
2013-11-12 15:51:00,55.5,50.1,30.25,SW,234,0.0,0.0,82,0.00,,---,0.10,VWS V14.01,2013-11-12 23:51:00,
2013-11-12 15:55:00,55.5,50.1,30.25,SW,234,0.0,0.0,82,0.00,,---,0.10,VWS V14.01,2013-11-12 23:55:00,
2013-11-12 15:56:00,55.5,50.1,30.25,SW,230,1.0,1.0,82,0.00,,---,0.10,VWS V14.01,2013-11-12 23:56:00,
2013-11-12 16:00:00,55.4,50.0,30.25,ESE,118,0.0,3.0,82,0.00,,---,0.10,VWS V14.01,2013-11-13 00:00:00,
2013-11-12 16:01:00,55.4,50.0,30.25,ESE,118,0.0,0.0,82,0.00,,---,0.10,VWS V14.01,2013-11-13 00:01:00,
2013-11-12 16:05:00,55.3,50.2,30.25,SE,130,1.0,5.0,83,0.00,,---,0.10,VWS V14.01,2013-11-13 00:05:00,
2013-11-12 16:06:00,55.3,50.2,30.25,SE,130,0.0,1.0,83,0.00,,---,0.10,VWS V14.01,2013-11-13 00:06:00,
2013-11-12 16:10:00,55.1,50.0,30.25,SSW,194,0.0,2.0,83,0.00,,---,0.10,VWS V14.01,2013-11-13 00:10:00,
2013-11-12 16:11:00,55.1,50.0,30.25,SSW,194,0.0,0.0,83,0.00,,---,0.10,VWS V14.01,2013-11-13 00:11:00,
2013-11-12 16:15:00,55.0,49.9,30.25,West,277,0.0,3.0,83,0.00,,---,0.10,VWS V14.01,2013-11-13 00:15:00,
2013-11-12 16:16:00,55.0,49.9,30.25,West,277,1.0,1.0,83,0.00,,---,0.10,VWS V14.01,2013-11-13 00:16:00,
2013-11-12 16:20:00,54.9,49.8,30.25,South,187,0.0,1.0,83,0.00,,---,0.10,VWS V14.01,2013-11-13 00:20:00,
2013-11-12 16:21:00,54.9,49.8,30.25,SSW,196,0.0,0.0,83,0.00,,---,0.10,VWS V14.01,2013-11-13 00:21:00,
2013-11-12 16:25:00,54.8,49.7,30.25,ESE,115,0.0,0.0,83,0.00,,---,0.10,VWS V14.01,2013-11-13 00:25:00,
2013-11-12 16:26:00,54.8,49.7,30.25,ESE,114,0.0,0.0,83,0.00,,---,0.10,VWS V14.01,2013-11-13 00:26:00,
2013-11-12 16:30:00,54.8,49.7,30.25,ESE,115,0.0,2.0,83,0.00,,---,0.10,VWS V14.01,2013-11-13 00:30:00,
2013-11-12 16:31:00,54.8,49.7,30.25,ESE,114,0.0,0.0,83,0.00,,---,0.10,VWS V14.01,2013-11-13 00:31:00,
2013-11-12 16:35:00,54.7,49.7,30.25,SE,144,0.0,5.0,83,0.00,,---,0.10,VWS V14.01,2013-11-13 00:35:00,
2013-11-12 16:36:00,54.7,49.3,30.25,SE,146,0.0,4.0,82,0.00,,---,0.10,VWS V14.01,2013-11-13 00:36:00,
2013-11-12 16:40:00,54.7,49.3,30.25,SE,144,3.0,4.0,82,0.00,,---,0.10,VWS V14.01,2013-11-13 00:40:00,
2013-11-12 16:41:00,54.7,49.3,30.25,SE,146,0.0,3.0,82,0.00,,---,0.10,VWS V14.01,2013-11-13 00:41:00,
2013-11-12 16:45:00,54.7,49.3,30.25,SE,142,0.0,3.0,82,0.00,,---,0.10,VWS V14.01,2013-11-13 00:45:00,
2013-11-12 16:46:00,54.7,49.3,30.25,SE,142,0.0,0.0,82,0.00,,---,0.10,VWS V14.01,2013-11-13 00:46:00,
2013-11-12 16:50:00,54.6,49.2,30.25,SSE,147,0.0,0.0,82,0.00,,---,0.10,VWS V14.01,2013-11-13 00:50:00,
2013-11-12 16:51:00,54.6,49.2,30.25,SSE,147,0.0,0.0,82,0.00,,---,0.10,VWS V14.01,2013-11-13 00:51:00,
2013-11-12 16:55:00,54.6,49.2,30.25,ESE,115,0.0,0.0,82,0.00,,---,0.10,VWS V14.01,2013-11-13 00:55:00,
2013-11-12 16:56:00,54.6,49.2,30.25,ESE,115,0.0,0.0,82,0.00,,---,0.10,VWS V14.01,2013-11-13 00:56:00,
2013-11-12 17:00:00,54.5,49.1,30.25,SSE,161,0.0,2.0,82,0.00,,---,0.10,VWS V14.01,2013-11-13 01:00:00,
2013-11-12 17:01:00,54.5,49.1,30.25,SSE,164,0.0,0.0,82,0.00,,---,0.10,VWS V14.01,2013-11-13 01:01:00,
2013-11-12 17:05:00,54.5,49.1,30.25,ESE,109,0.0,1.0,82,0.00,,---,0.10,VWS V14.01,2013-11-13 01:05:00,
2013-11-12 17:06:00,54.4,49.0,30.25,SW,222,0.0,2.0,82,0.00,,---,0.10,VWS V14.01,2013-11-13 01:06:00,
2013-11-12 17:10:00,54.4,49.0,30.25,East,87,0.0,3.0,82,0.00,,---,0.10,VWS V14.01,2013-11-13 01:10:00,
2013-11-12 17:11:00,54.4,49.0,30.25,East,87,0.0,0.0,82,0.00,,---,0.10,VWS V14.01,2013-11-13 01:11:00,
2013-11-12 17:15:00,54.4,49.0,30.25,SW,232,1.0,1.0,82,0.00,,---,0.10,VWS V14.01,2013-11-13 01:15:00,
2013-11-12 17:16:00,54.4,49.0,30.25,SE,133,0.0,2.0,82,0.00,,---,0.10,VWS V14.01,2013-11-13 01:16:00,
2013-11-12 17:20:00,54.4,49.0,30.25,SSW,197,0.0,7.0,82,0.00,,---,0.10,VWS V14.01,2013-11-13 01:20:00,
2013-11-12 17:21:00,54.4,49.0,30.25,South,176,0.0,0.0,82,0.00,,---,0.10,VWS V14.01,2013-11-13 01:21:00,
2013-11-12 17:25:00,54.4,49.0,30.25,ESE,113,0.0,1.0,82,0.00,,---,0.10,VWS V14.01,2013-11-13 01:25:00,
2013-11-12 17:26:00,54.4,49.0,30.25,ESE,113,0.0,0.0,82,0.00,,---,0.10,VWS V14.01,2013-11-13 01:26:00,
2013-11-12 17:30:00,54.4,49.0,30.25,SSE,163,0.0,4.0,82,0.00,,---,0.10,VWS V14.01,2013-11-13 01:30:00,
2013-11-12 17:31:00,54.4,49.0,30.25,SSE,162,0.0,0.0,82,0.00,,---,0.10,VWS V14.01,2013-11-13 01:31:00,
2013-11-12 17:35:00,54.3,48.9,30.25,SE,143,0.0,3.0,82,0.00,,---,0.10,VWS V14.01,2013-11-13 01:35:00,
2013-11-12 17:36:00,54.4,49.0,30.25,SSE,150,0.0,0.0,82,0.00,,---,0.10,VWS V14.01,2013-11-13 01:36:00,
2013-11-12 17:40:00,54.3,48.9,30.25,NE,42,0.0,0.0,82,0.00,,---,0.10,VWS V14.01,2013-11-13 01:40:00,
2013-11-12 17:41:00,54.3,48.9,30.25,NE,42,0.0,0.0,82,0.00,,---,0.10,VWS V14.01,2013-11-13 01:41:00,
2013-11-12 17:45:00,54.3,48.9,30.25,WSW,242,0.0,3.0,82,0.00,,---,0.10,VWS V14.01,2013-11-13 01:45:00,
2013-11-12 17:46:00,54.3,48.9,30.26,South,173,1.0,2.0,82,0.00,,---,0.10,VWS V14.01,2013-11-13 01:46:00,
2013-11-12 17:50:00,54.3,48.6,30.25,ENE,75,0.0,4.0,81,0.00,,---,0.10,VWS V14.01,2013-11-13 01:50:00,
2013-11-12 17:51:00,54.2,48.5,30.25,SW,232,0.0,0.0,81,0.00,,---,0.10,VWS V14.01,2013-11-13 01:51:00,
2013-11-12 17:55:00,54.2,48.8,30.25,South,173,1.0,2.0,82,0.00,,---,0.10,VWS V14.01,2013-11-13 01:55:00,
2013-11-12 17:56:00,54.2,48.8,30.25,South,173,0.0,1.0,82,0.00,,---,0.10,VWS V14.01,2013-11-13 01:56:00,
2013-11-12 18:00:00,54.1,48.7,30.25,SSW,204,0.0,2.0,82,0.00,,---,0.10,VWS V14.01,2013-11-13 02:00:00,
2013-11-12 18:01:00,54.1,48.7,30.25,SSW,204,0.0,0.0,82,0.00,,---,0.10,VWS V14.01,2013-11-13 02:01:00,
2013-11-12 18:05:00,54.1,48.7,30.26,SSW,199,0.0,6.0,82,0.00,,---,0.10,VWS V14.01,2013-11-13 02:05:00,
2013-11-12 18:06:00,54.1,48.7,30.26,South,172,2.0,2.0,82,0.00,,---,0.10,VWS V14.01,2013-11-13 02:06:00,
2013-11-12 18:10:00,54.0,48.3,30.25,ESE,115,0.0,3.0,81,0.00,,---,0.10,VWS V14.01,2013-11-13 02:10:00,
2013-11-12 18:11:00,54.0,48.3,30.25,ESE,115,0.0,0.0,81,0.00,,---,0.10,VWS V14.01,2013-11-13 02:11:00,
2013-11-12 18:15:00,54.0,48.3,30.26,SSE,156,1.0,3.0,81,0.00,,---,0.10,VWS V14.01,2013-11-13 02:15:00,
2013-11-12 18:16:00,54.0,48.3,30.26,SW,222,0.0,1.0,81,0.00,,---,0.10,VWS V14.01,2013-11-13 02:16:00,
2013-11-12 18:20:00,53.9,48.2,30.26,SSE,148,0.0,2.0,81,0.00,,---,0.10,VWS V14.01,2013-11-13 02:20:00,
2013-11-12 18:21:00,53.9,48.2,30.26,SSE,148,0.0,0.0,81,0.00,,---,0.10,VWS V14.01,2013-11-13 02:21:00,
2013-11-12 18:25:00,53.8,48.1,30.26,SSE,155,0.0,2.0,81,0.00,,---,0.10,VWS V14.01,2013-11-13 02:25:00,
2013-11-12 18:26:00,53.8,48.1,30.26,SSE,157,0.0,0.0,81,0.00,,---,0.10,VWS V14.01,2013-11-13 02:26:00,
2013-11-12 18:30:00,53.7,48.0,30.26,SSE,152,0.0,0.0,81,0.00,,---,0.10,VWS V14.01,2013-11-13 02:30:00,
2013-11-12 18:31:00,53.7,48.0,30.26,SSE,152,0.0,0.0,81,0.00,,---,0.10,VWS V14.01,2013-11-13 02:31:00,
2013-11-12 18:35:00,53.6,47.9,30.26,SE,138,0.0,3.0,81,0.00,,---,0.10,VWS V14.01,2013-11-13 02:35:00,
2013-11-12 18:36:00,53.6,47.9,30.26,SE,138,0.0,0.0,81,0.00,,---,0.10,VWS V14.01,2013-11-13 02:36:00,
2013-11-12 18:40:00,53.5,47.8,30.26,SE,138,0.0,3.0,81,0.00,,---,0.10,VWS V14.01,2013-11-13 02:40:00,
2013-11-12 18:41:00,53.5,47.8,30.26,SE,138,0.0,0.0,81,0.00,,---,0.10,VWS V14.01,2013-11-13 02:41:00,
2013-11-12 18:45:00,53.3,47.6,30.26,SE,141,0.0,1.0,81,0.00,,---,0.10,VWS V14.01,2013-11-13 02:45:00,
2013-11-12 18:46:00,53.3,47.6,30.26,SE,142,0.0,0.0,81,0.00,,---,0.10,VWS V14.01,2013-11-13 02:46:00,
2013-11-12 18:50:00,53.2,47.5,30.26,SE,142,0.0,0.0,81,0.00,,---,0.10,VWS V14.01,2013-11-13 02:50:00,
2013-11-12 18:51:00,53.2,47.5,30.26,SE,142,0.0,0.0,81,0.00,,---,0.10,VWS V14.01,2013-11-13 02:51:00,
2013-11-12 18:55:00,53.1,47.1,30.26,SSW,196,0.0,1.0,80,0.00,,---,0.10,VWS V14.01,2013-11-13 02:55:00,
2013-11-12 18:56:00,53.1,47.1,30.26,SSW,196,0.0,0.0,80,0.00,,---,0.10,VWS V14.01,2013-11-13 02:56:00,
2013-11-12 19:00:00,53.0,47.0,30.27,SSW,208,0.0,0.0,80,0.00,,---,0.10,VWS V14.01,2013-11-13 03:00:00,
2013-11-12 19:01:00,53.0,46.7,30.27,SSW,207,0.0,0.0,79,0.00,,---,0.10,VWS V14.01,2013-11-13 03:01:00,
2013-11-12 19:05:00,52.9,46.6,30.27,WSW,252,0.0,4.0,79,0.00,,---,0.10,VWS V14.01,2013-11-13 03:05:00,
2013-11-12 19:06:00,52.9,46.6,30.27,ESE,121,0.0,0.0,79,0.00,,---,0.10,VWS V14.01,2013-11-13 03:06:00,
2013-11-12 19:10:00,52.8,46.5,30.27,SW,219,0.0,1.0,79,0.00,,---,0.10,VWS V14.01,2013-11-13 03:10:00,
2013-11-12 19:11:00,52.8,46.5,30.27,SW,227,0.0,0.0,79,0.00,,---,0.10,VWS V14.01,2013-11-13 03:11:00,
2013-11-12 19:15:00,52.8,46.1,30.27,South,184,2.0,6.0,78,0.00,,---,0.10,VWS V14.01,2013-11-13 03:15:00,
2013-11-12 19:16:00,52.8,46.1,30.27,South,184,0.0,2.0,78,0.00,,---,0.10,VWS V14.01,2013-11-13 03:16:00,
2013-11-12 19:20:00,52.8,45.8,30.27,WSW,250,0.0,2.0,77,0.00,,---,0.10,VWS V14.01,2013-11-13 03:20:00,
2013-11-12 19:21:00,52.8,45.8,30.27,WSW,250,0.0,0.0,77,0.00,,---,0.10,VWS V14.01,2013-11-13 03:21:00,
2013-11-12 19:25:00,52.8,46.1,30.27,SW,223,0.0,2.0,78,0.00,,---,0.10,VWS V14.01,2013-11-13 03:25:00,
2013-11-12 19:26:00,52.7,46.0,30.27,West,264,0.0,0.0,78,0.00,,---,0.10,VWS V14.01,2013-11-13 03:26:00,
2013-11-12 19:30:00,52.7,46.0,30.27,WSW,240,0.0,3.0,78,0.00,,---,0.10,VWS V14.01,2013-11-13 03:30:00,
2013-11-12 19:31:00,52.7,46.0,30.27,WSW,240,0.0,0.0,78,0.00,,---,0.10,VWS V14.01,2013-11-13 03:31:00,
2013-11-12 19:35:00,52.7,46.4,30.27,SW,217,0.0,2.0,79,0.00,,---,0.10,VWS V14.01,2013-11-13 03:35:00,
2013-11-12 19:36:00,52.7,46.4,30.27,SW,217,0.0,0.0,79,0.00,,---,0.10,VWS V14.01,2013-11-13 03:36:00,
2013-11-12 19:40:00,52.7,46.4,30.27,WNW,284,0.0,2.0,79,0.00,,---,0.10,VWS V14.01,2013-11-13 03:40:00,
2013-11-12 19:41:00,52.7,46.4,30.27,WNW,286,0.0,0.0,79,0.00,,---,0.10,VWS V14.01,2013-11-13 03:41:00,
2013-11-12 19:45:00,52.7,46.4,30.27,WNW,285,0.0,0.0,79,0.00,,---,0.10,VWS V14.01,2013-11-13 03:45:00,
2013-11-12 19:46:00,52.7,46.4,30.27,WNW,285,0.0,0.0,79,0.00,,---,0.10,VWS V14.01,2013-11-13 03:46:00,
2013-11-12 19:50:00,52.7,46.4,30.27,SSE,159,0.0,0.0,79,0.00,,---,0.10,VWS V14.01,2013-11-13 03:50:00,
2013-11-12 19:51:00,52.6,46.3,30.27,SW,228,0.0,1.0,79,0.00,,---,0.10,VWS V14.01,2013-11-13 03:51:00,
2013-11-12 19:55:00,52.6,46.3,30.27,WSW,253,0.0,1.0,79,0.00,,---,0.10,VWS V14.01,2013-11-13 03:55:00,
2013-11-12 19:56:00,52.6,46.3,30.27,WSW,253,0.0,0.0,79,0.00,,---,0.10,VWS V14.01,2013-11-13 03:56:00,
2013-11-12 20:00:00,52.5,46.2,30.28,SSW,205,0.0,1.0,79,0.00,,---,0.10,VWS V14.01,2013-11-13 04:00:00,
2013-11-12 20:01:00,52.5,46.2,30.28,South,182,0.0,0.0,79,0.00,,---,0.10,VWS V14.01,2013-11-13 04:01:00,
2013-11-12 20:05:00,52.4,46.1,30.28,South,180,0.0,0.0,79,0.00,,---,0.10,VWS V14.01,2013-11-13 04:05:00,
2013-11-12 20:06:00,52.4,46.1,30.28,South,180,0.0,0.0,79,0.00,,---,0.10,VWS V14.01,2013-11-13 04:06:00,
2013-11-12 20:10:00,52.3,46.0,30.28,East,81,0.0,0.0,79,0.00,,---,0.10,VWS V14.01,2013-11-13 04:10:00,
2013-11-12 20:11:00,52.4,46.1,30.29,SSE,163,1.0,1.0,79,0.00,,---,0.10,VWS V14.01,2013-11-13 04:11:00,
2013-11-12 20:15:00,52.3,46.0,30.28,SSE,148,1.0,2.0,79,0.00,,---,0.10,VWS V14.01,2013-11-13 04:15:00,
2013-11-12 20:16:00,52.3,46.0,30.28,SSE,148,0.0,2.0,79,0.00,,---,0.10,VWS V14.01,2013-11-13 04:16:00,
2013-11-12 20:20:00,52.2,45.9,30.29,SSE,148,0.0,2.0,79,0.00,,---,0.10,VWS V14.01,2013-11-13 04:20:00,
2013-11-12 20:21:00,52.2,45.9,30.29,SSE,148,0.0,0.0,79,0.00,,---,0.10,VWS V14.01,2013-11-13 04:21:00,
2013-11-12 20:25:00,52.2,45.6,30.29,SSE,148,0.0,0.0,78,0.00,,---,0.10,VWS V14.01,2013-11-13 04:25:00,
2013-11-12 20:26:00,52.2,45.6,30.29,SSE,148,0.0,0.0,78,0.00,,---,0.10,VWS V14.01,2013-11-13 04:26:00,
2013-11-12 20:30:00,52.2,45.6,30.29,SSE,148,0.0,2.0,78,0.00,,---,0.10,VWS V14.01,2013-11-13 04:30:00,
2013-11-12 20:31:00,52.1,45.1,30.29,SSE,149,0.0,0.0,77,0.00,,---,0.10,VWS V14.01,2013-11-13 04:31:00,
2013-11-12 20:35:00,52.1,45.1,30.29,SSE,149,0.0,0.0,77,0.00,,---,0.10,VWS V14.01,2013-11-13 04:35:00,
2013-11-12 20:36:00,52.1,45.1,30.29,SSE,149,0.0,0.0,77,0.00,,---,0.10,VWS V14.01,2013-11-13 04:36:00,
2013-11-12 20:40:00,52.1,45.1,30.29,SSE,149,0.0,0.0,77,0.00,,---,0.10,VWS V14.01,2013-11-13 04:40:00,
2013-11-12 20:41:00,52.0,45.0,30.29,SSE,149,0.0,0.0,77,0.00,,---,0.10,VWS V14.01,2013-11-13 04:41:00,
2013-11-12 20:45:00,51.9,45.3,30.29,SE,132,0.0,0.0,78,0.00,,---,0.10,VWS V14.01,2013-11-13 04:45:00,
2013-11-12 20:46:00,51.9,45.3,30.29,SE,132,0.0,0.0,78,0.00,,---,0.10,VWS V14.01,2013-11-13 04:46:00,
2013-11-12 20:50:00,51.8,45.2,30.29,ESE,123,0.0,0.0,78,0.00,,---,0.10,VWS V14.01,2013-11-13 04:50:00,
2013-11-12 20:51:00,51.8,45.2,30.29,ESE,122,0.0,0.0,78,0.00,,---,0.10,VWS V14.01,2013-11-13 04:51:00,
2013-11-12 20:55:00,51.7,45.1,30.29,ESE,123,0.0,0.0,78,0.00,,---,0.10,VWS V14.01,2013-11-13 04:55:00,
2013-11-12 20:56:00,51.8,45.2,30.29,ESE,123,0.0,0.0,78,0.00,,---,0.10,VWS V14.01,2013-11-13 04:56:00,
2013-11-12 21:00:00,51.7,44.7,30.29,South,178,0.0,0.0,77,0.00,,---,0.10,VWS V14.01,2013-11-13 05:00:00,
2013-11-12 21:01:00,51.7,44.7,30.29,South,178,0.0,0.0,77,0.00,,---,0.10,VWS V14.01,2013-11-13 05:01:00,
2013-11-12 21:05:00,51.6,44.3,30.29,South,178,0.0,1.0,76,0.00,,---,0.10,VWS V14.01,2013-11-13 05:05:00,
2013-11-12 21:06:00,51.6,44.3,30.29,NNW,330,0.0,0.0,76,0.00,,---,0.10,VWS V14.01,2013-11-13 05:06:00,
2013-11-12 21:10:00,51.5,44.5,30.30,NNW,330,0.0,0.0,77,0.00,,---,0.10,VWS V14.01,2013-11-13 05:10:00,
2013-11-12 21:11:00,51.5,44.5,30.30,NNW,330,0.0,0.0,77,0.00,,---,0.10,VWS V14.01,2013-11-13 05:11:00,
2013-11-12 21:15:00,51.4,44.4,30.30,NNW,330,0.0,0.0,77,0.00,,---,0.10,VWS V14.01,2013-11-13 05:15:00,
2013-11-12 21:16:00,51.4,44.4,30.30,NNW,330,0.0,0.0,77,0.00,,---,0.10,VWS V14.01,2013-11-13 05:16:00,
2013-11-12 21:20:00,51.3,44.3,30.30,NNW,330,0.0,0.0,77,0.00,,---,0.10,VWS V14.01,2013-11-13 05:20:00,
2013-11-12 21:21:00,51.3,44.3,30.30,NNW,330,0.0,0.0,77,0.00,,---,0.10,VWS V14.01,2013-11-13 05:21:00,
2013-11-12 21:25:00,51.2,43.9,30.30,WSW,240,0.0,0.0,76,0.00,,---,0.10,VWS V14.01,2013-11-13 05:25:00,
2013-11-12 21:26:00,51.3,44.0,30.30,WSW,242,0.0,0.0,76,0.00,,---,0.10,VWS V14.01,2013-11-13 05:26:00,
2013-11-12 21:30:00,51.2,43.6,30.30,WSW,248,1.0,1.0,75,0.00,,---,0.10,VWS V14.01,2013-11-13 05:30:00,
2013-11-12 21:31:00,51.2,43.2,30.30,WSW,248,0.0,1.0,74,0.00,,---,0.10,VWS V14.01,2013-11-13 05:31:00,
2013-11-12 21:35:00,51.2,43.2,30.30,WSW,242,0.0,4.0,74,0.00,,---,0.10,VWS V14.01,2013-11-13 05:35:00,
2013-11-12 21:36:00,51.2,43.2,30.30,South,171,0.0,1.0,74,0.00,,---,0.10,VWS V14.01,2013-11-13 05:36:00,
2013-11-12 21:40:00,51.2,43.2,30.30,West,265,0.0,3.0,74,0.00,,---,0.10,VWS V14.01,2013-11-13 05:40:00,
2013-11-12 21:41:00,51.2,43.2,30.30,WSW,253,2.0,5.0,74,0.00,,---,0.10,VWS V14.01,2013-11-13 05:41:00,
2013-11-12 21:45:00,51.3,42.6,30.30,SW,229,0.0,5.0,72,0.00,,---,0.10,VWS V14.01,2013-11-13 05:45:00,
2013-11-12 21:46:00,51.3,42.6,30.30,SW,229,0.0,0.0,72,0.00,,---,0.10,VWS V14.01,2013-11-13 05:46:00,
2013-11-12 21:50:00,51.3,42.6,30.30,SW,234,0.0,0.0,72,0.00,,---,0.10,VWS V14.01,2013-11-13 05:50:00,
2013-11-12 21:51:00,51.3,42.6,30.30,SW,234,0.0,0.0,72,0.00,,---,0.10,VWS V14.01,2013-11-13 05:51:00,
2013-11-12 21:55:00,51.3,43.0,30.30,SW,235,0.0,0.0,73,0.00,,---,0.10,VWS V14.01,2013-11-13 05:55:00,
2013-11-12 21:56:00,51.2,43.2,30.30,SW,235,0.0,0.0,74,0.00,,---,0.10,VWS V14.01,2013-11-13 05:56:00,
2013-11-12 22:00:00,51.1,43.5,30.30,WSW,242,2.0,2.0,75,0.00,,---,0.10,VWS V14.01,2013-11-13 06:00:00,
2013-11-12 22:01:00,51.1,43.5,30.30,WSW,242,0.0,2.0,75,0.00,,---,0.10,VWS V14.01,2013-11-13 06:01:00,
2013-11-12 22:05:00,51.0,43.4,30.31,WSW,241,0.0,2.0,75,0.00,,---,0.10,VWS V14.01,2013-11-13 06:05:00,
2013-11-12 22:06:00,51.0,43.4,30.31,WSW,242,0.0,0.0,75,0.00,,---,0.10,VWS V14.01,2013-11-13 06:06:00,
2013-11-12 22:10:00,50.9,43.3,30.31,WSW,241,0.0,0.0,75,0.00,,---,0.10,VWS V14.01,2013-11-13 06:10:00,
2013-11-12 22:11:00,50.9,43.3,30.31,WSW,241,0.0,0.0,75,0.00,,---,0.10,VWS V14.01,2013-11-13 06:11:00,
2013-11-12 22:15:00,50.8,43.2,30.30,NW,315,0.0,2.0,75,0.00,,---,0.10,VWS V14.01,2013-11-13 06:15:00,
2013-11-12 22:16:00,50.8,43.2,30.30,NW,315,0.0,0.0,75,0.00,,---,0.10,VWS V14.01,2013-11-13 06:16:00,
2013-11-12 22:20:00,50.7,43.1,30.31,NW,315,0.0,0.0,75,0.00,,---,0.10,VWS V14.01,2013-11-13 06:20:00,
2013-11-12 22:21:00,50.7,43.1,30.31,NW,315,0.0,0.0,75,0.00,,---,0.10,VWS V14.01,2013-11-13 06:21:00,
2013-11-12 22:25:00,50.6,43.0,30.31,NW,318,0.0,0.0,75,0.00,,---,0.10,VWS V14.01,2013-11-13 06:25:00,
2013-11-12 22:26:00,50.6,43.0,30.31,NW,318,0.0,0.0,75,0.00,,---,0.10,VWS V14.01,2013-11-13 06:26:00,
2013-11-12 22:30:00,50.5,42.9,30.31,NW,318,0.0,0.0,75,0.00,,---,0.10,VWS V14.01,2013-11-13 06:30:00,
2013-11-12 22:31:00,50.5,42.9,30.31,NW,318,0.0,0.0,75,0.00,,---,0.10,VWS V14.01,2013-11-13 06:31:00,
2013-11-12 22:35:00,50.5,42.5,30.31,NW,318,0.0,0.0,74,0.00,,---,0.10,VWS V14.01,2013-11-13 06:35:00,
2013-11-12 22:36:00,50.5,42.5,30.31,NW,318,0.0,0.0,74,0.00,,---,0.10,VWS V14.01,2013-11-13 06:36:00,
2013-11-12 22:40:00,50.5,42.2,30.31,SE,145,2.0,2.0,73,0.00,,---,0.10,VWS V14.01,2013-11-13 06:40:00,
2013-11-12 22:41:00,50.5,42.2,30.31,SE,145,0.0,2.0,73,0.00,,---,0.10,VWS V14.01,2013-11-13 06:41:00,
2013-11-12 22:45:00,50.5,41.8,30.31,SSE,168,0.0,2.0,72,0.00,,---,0.10,VWS V14.01,2013-11-13 06:45:00,
2013-11-12 22:46:00,50.5,41.8,30.31,SSW,209,0.0,0.0,72,0.00,,---,0.10,VWS V14.01,2013-11-13 06:46:00,
2013-11-12 22:50:00,50.5,41.5,30.31,SE,143,2.0,3.0,71,0.00,,---,0.10,VWS V14.01,2013-11-13 06:50:00,
2013-11-12 22:51:00,50.6,41.6,30.31,SE,142,0.0,2.0,71,0.00,,---,0.10,VWS V14.01,2013-11-13 06:51:00,
2013-11-12 22:55:00,50.6,41.2,30.32,SE,142,0.0,2.0,70,0.00,,---,0.10,VWS V14.01,2013-11-13 06:55:00,
2013-11-12 22:56:00,50.6,41.2,30.32,SE,143,0.0,0.0,70,0.00,,---,0.10,VWS V14.01,2013-11-13 06:56:00,
2013-11-12 23:00:00,50.6,41.2,30.32,SSW,198,0.0,0.0,70,0.00,,---,0.10,VWS V14.01,2013-11-13 07:00:00,
2013-11-12 23:01:00,50.6,41.2,30.32,SSW,198,0.0,0.0,70,0.00,,---,0.10,VWS V14.01,2013-11-13 07:01:00,
2013-11-12 23:05:00,50.6,41.6,30.31,SSW,198,0.0,0.0,71,0.00,,---,0.10,VWS V14.01,2013-11-13 07:05:00,
2013-11-12 23:06:00,50.5,41.5,30.31,SSW,198,0.0,0.0,71,0.00,,---,0.10,VWS V14.01,2013-11-13 07:06:00,
2013-11-12 23:10:00,50.4,42.1,30.31,SSW,196,0.0,0.0,73,0.00,,---,0.10,VWS V14.01,2013-11-13 07:10:00,
2013-11-12 23:11:00,50.3,42.0,30.32,SSW,197,0.0,0.0,73,0.00,,---,0.10,VWS V14.01,2013-11-13 07:11:00,
2013-11-12 23:15:00,50.2,42.2,30.32,SSW,195,0.0,0.0,74,0.00,,---,0.10,VWS V14.01,2013-11-13 07:15:00,
2013-11-12 23:16:00,50.2,42.2,30.32,SSW,195,0.0,0.0,74,0.00,,---,0.10,VWS V14.01,2013-11-13 07:16:00,
2013-11-12 23:20:00,50.0,42.4,30.32,SE,136,0.0,2.0,75,0.00,,---,0.10,VWS V14.01,2013-11-13 07:20:00,
2013-11-12 23:21:00,49.9,42.3,30.32,SE,136,0.0,0.0,75,0.00,,---,0.10,VWS V14.01,2013-11-13 07:21:00,
2013-11-12 23:25:00,49.7,42.5,30.32,SE,136,0.0,0.0,76,0.00,,---,0.10,VWS V14.01,2013-11-13 07:25:00,
2013-11-12 23:26:00,49.6,42.4,30.32,SE,136,0.0,0.0,76,0.00,,---,0.10,VWS V14.01,2013-11-13 07:26:00,
2013-11-12 23:30:00,49.5,42.3,30.32,SE,137,0.0,2.0,76,0.00,,---,0.10,VWS V14.01,2013-11-13 07:30:00,
2013-11-12 23:31:00,49.4,42.2,30.32,SE,137,0.0,0.0,76,0.00,,---,0.10,VWS V14.01,2013-11-13 07:31:00,
2013-11-12 23:35:00,49.3,42.1,30.32,SE,137,0.0,0.0,76,0.00,,---,0.10,VWS V14.01,2013-11-13 07:35:00,
2013-11-12 23:36:00,49.3,41.7,30.32,SE,137,0.0,0.0,75,0.00,,---,0.10,VWS V14.01,2013-11-13 07:36:00,
2013-11-12 23:40:00,49.2,41.3,30.32,SE,137,0.0,2.0,74,0.00,,---,0.10,VWS V14.01,2013-11-13 07:40:00,
2013-11-12 23:41:00,49.2,41.3,30.32,SE,137,0.0,0.0,74,0.00,,---,0.10,VWS V14.01,2013-11-13 07:41:00,
2013-11-12 23:45:00,49.1,41.2,30.32,SE,137,1.0,1.0,74,0.00,,---,0.10,VWS V14.01,2013-11-13 07:45:00,
2013-11-12 23:46:00,49.1,40.8,30.32,SE,137,0.0,1.0,73,0.00,,---,0.10,VWS V14.01,2013-11-13 07:46:00,
2013-11-12 23:50:00,49.1,40.8,30.32,ESE,119,0.0,1.0,73,0.00,,---,0.10,VWS V14.01,2013-11-13 07:50:00,
2013-11-12 23:51:00,49.0,40.7,30.32,ESE,118,0.0,0.0,73,0.00,,---,0.10,VWS V14.01,2013-11-13 07:51:00,
2013-11-12 23:55:00,49.0,40.7,30.32,ESE,120,1.0,2.0,73,0.00,,---,0.10,VWS V14.01,2013-11-13 07:55:00,
2013-11-12 23:56:00,49.0,40.4,30.32,ESE,119,0.0,1.0,72,0.00,,---,0.10,VWS V14.01,2013-11-13 07:56:00,